ATLAS 5 CENTAUR R/B, 42916

Orbit data source: Space-Track

ATLAS 5 CENTAUR R/B, 42916 is space debris in HEO originally from a launch on Fri, 18 Aug 2017 UTC launched from the Air Force Eastern Test Range (AFETR). Debris objects in space refer to the collection of defunct objects orbiting the Earth. Examples of debris include non-operational satellites, rocket bodies, and fragments generated from explosions, collisions, or faulty payload assembly.

Loading next visibility...
Identifier
42916, 2017-047B
Orbit
HEO
Country
Flag of USUS
Related business
Flag of USUnited Launch Alliance/Lockheed Martin (US)
Manufacturer
ULA Decatur
Mission
Spacecraft
Bus & Motor
CENTAUR SEC, RL10C-1
Mass
~2,020 kg wet, 2,020 kg dry
Launch date (UTC)
2017-08-18 (8 years ago)
Launch vehicle
Unknown
Launch site
Air Force Eastern Test Range (AFETR)
Object type
Payload
Rocket body
Debris
Shape & HBR
Cyl + 1 Nozzle, 5.8 m
Radar Cross Section
32.260 m², Large (>1 m²)

Expand to show TLE details & history
Last TLE update: 2 days ago

TLE from 2 days ago
0 ATLAS 5 CENTAUR R/B
1 42916U 17047B   25285.61795509  .00000285  00000-0  00000-0 0  9990
2 42916  25.4344 237.6192 5866749 220.9500  75.7023  2.06616103 61555
Epoch: 2025-10-12T14:49Z
TLE epoch observation values (Epoch: 2025-10-12T14:49:51.319Z)
Latitude
Longitude
-6.2993°
Altitude
24,301.261 km
Speed
3.268 km/s
True Right ascension
15h 50m 23s
True Declination
0° 00' 00"
Sunlit
Object was in daylight at epoch
Visualization orbit readout
Latitude
Unknown
Longitude
Unknown
Altitude
Unknown
Speed
Unknown
Apparent Right ascension
Unknown
Apparent Declination
Unknown
Sunlit
N/A
Visualization observer readout
Local Sidereal Time
09:41:15
Azimuth
Unknown
Elevation
Unknown
Doppler factor
Unknown
Orbital elements
Apogee altitude
34,941.107 km
Perigee altitude
4,385.429 km
Semi-major axis
26,041.405 km
Eccentricity
0.58667
Inclination
25.4344°
RAAN
237.6192°
Arg. of periapsis
220.95°
True anomaly
139.11714°
Mean anomaly
75.7023°
Eccentric anomaly
107.72126°
Mean motion
0.51647 °/min
Orbital period
697.04 mins
BSTAR
0
Loading maneuver chart data...
Computing Atmospheric mass density...
Loading historical data...
Loading historical data...
Loading historical data...
Loading historical data...
Loading historical data...
Loading historical data...
Loading historical data...
Other satellites on launch #47 in the year 2017 (2017-08-18 UTC)

Documentation

Showing up to 5 results
|